[[{"header":{"parameterUnit":"m.s-1","parameterCategory":1,"la1":30.2991,"la2":30.254,"lo1":-89.0895,"lo2":-89.0444,"dy":0.0017,"dx":0.0017,"nx":28,"ny":28,"refTime":"2025-12-06T09:00:00:Z","depth":0,"parameterNumber":2,"parameterNumberName":"U-component_of_WINDS"},"data":[0,0,0,0,0,0,0,0,0,0,0,0,0,0,0,0,0,0,0,0,0,0,0,0,0,0,0,0,0,0,0,0,0,0,0,0,0,0,0,0,0,0,0,0,0,0,0,0,0,0,0,0,0,0,0,0,0,0,-3.9804,-3.9805,0,-3.985,-3.985,-3.9851,-3.9718,-3.9714,-3.9709,-3.9706,-3.9754,-3.9759,-3.9764,0,0,0,0,0,0,0,0,0,0,0,0,0,-3.9604,-3.9608,-3.9804,-3.9805,-3.9806,-3.985,-3.9851,-3.9851,-3.9718,-3.9713,-3.9708,-3.9704,-3.9753,-3.9759,-3.9765,0,0,0,0,0,0,0,0,0,0,0,0,0,-3.9675,-3.961,-3.9804,-3.9745,-3.974,-3.985,-3.9851,-3.9851,-3.9719,-3.9713,-3.9707,-3.9701,-3.9751,-3.9758,-3.9766,-3.9936,0,0,-3.9789,-3.9793,0,0,0,0,0,0,0,0,-3.9671,-3.9682,-3.9753,-3.9749,-3.9744,-3.9772,-3.9797,-3.988,-3.9721,-3.9727,-3.9705,-3.9698,-3.9765,-3.9771,-3.9793,-3.9939,-3.9941,-3.979,-3.9795,-3.9798,-3.98,0,0,0,0,0,0,0,-3.9666,-3.9679,-3.9822,-3.9754,-3.9748,-3.9716,-3.9719,-3.9813,-3.978,-3.9726,-3.9717,-3.9724,-3.9762,-3.9786,-3.9794,-3.9941,-3.979,-3.9796,-3.9801,-3.9804,-4.0227,-4.0233,0,0,0,0,0,0,-3.9669,-3.9676,-3.9821,-3.9824,-3.9691,-3.9725,-3.9728,-3.9769,-3.9779,-3.9774,-3.9729,-3.9717,-3.9776,-3.9785,-3.9795,-3.9993,-3.9798,-3.9805,-3.9809,-4.022,-4.0228,-4.0235,0,0,0,0,0,0,-3.9665,-3.9683,-3.9819,-3.9747,-3.9762,-3.9735,-3.9782,-3.9773,-3.9798,-3.9781,-3.9775,-3.976,-3.9772,-3.9784,-3.9901,-3.9993,-3.9808,-3.9815,-4.0213,-4.0223,-4.0232,-4.0393,0,0,0,0,0,0,-3.966,-3.9682,-3.9746,-3.975,-3.9767,-3.9925,-3.9787,-3.9779,-3.9811,-3.9796,-3.9808,-3.9805,-3.9768,-3.9891,-3.9909,-4.0,-3.9821,-4.0204,-4.0217,-4.0229,-4.0379,-4.0407,-4.0431,0,0,0,0,0,-3.9653,-3.9791,-3.975,-3.9769,-3.9846,-3.9931,-3.994,-3.9895,-3.9819,-3.9883,-3.9872,-3.9804,-3.9981,-3.9904,-3.9924,-4.0019,-4.0198,-4.0213,-4.0228,-4.0368,-4.0402,-4.0431,0,0,0,0,0,0,-3.98,-3.979,-3.9745,-3.9888,-3.9911,-3.9908,-3.9987,-3.9932,-3.9978,-3.9962,-3.9904,-3.9908,-4.0036,-4.0039,-3.9954,-4.0183,-4.0076,-4.0096,-4.0176,-4.0208,-4.0234,-4.0229,-3.9828,0,0,0,0,0,-3.9849,-3.9917,-3.9906,-4.0033,-4.0047,-4.0016,-4.0051,-4.0014,-4.0035,-4.0045,-4.0042,-4.0067,-4.0127,-4.0168,-4.0223,-4.038,-4.038,-4.0455,-4.0481,-4.0502,-4.0519,-4.0601,-4.0633,-4.0284,-4.0284,-4.0284,0,0,-3.995,-3.9954,-4.0001,-4.0063,-4.0076,-4.0148,-4.0025,-4.0107,-4.016,-4.0057,-4.0167,-4.0167,-4.019,-4.0328,-4.0388,-4.0334,-4.0616,-4.0521,-4.0538,-4.0544,-4.0619,-4.0652,-4.0682,-4.0295,-4.0293,-4.0291,0,0,-4.0172,-4.0183,-4.0289,-4.0305,-4.0326,-4.0304,-4.0331,-4.0336,-4.0331,-4.0441,-4.0364,-4.0427,-4.0534,-4.0552,-4.0576,-4.0806,-4.0744,-4.0826,-4.096,-4.104,-4.1068,-4.1092,-4.1172,-4.1202,-4.0843,-4.0844,-4.0844,0,-4.0296,-4.0402,-4.0351,-4.0438,-4.0467,-4.0376,-4.0483,-4.0502,-4.0541,-4.0563,-4.0502,-4.0632,-4.0642,-4.0782,-4.0838,-4.0861,-4.0888,-4.0823,-4.1068,-4.1092,-4.1113,-4.1189,-4.1219,-4.0853,-4.0852,-4.0851,-4.085,0,-4.0552,-4.0627,-4.071,-4.0749,-4.0787,-4.0885,-4.0848,-4.0894,-4.0854,-4.0839,-4.0951,-4.0959,-4.1014,-4.1045,-4.1007,-4.1179,-4.1145,-4.1078,-4.0968,-4.1157,-4.1227,-4.1256,-4.0867,-4.0864,-4.0861,-4.0858,0,0,-4.0866,-4.0875,-4.0906,-4.0922,-4.094,-4.0996,-4.109,-4.1142,-4.1181,-4.1212,-4.1288,-4.138,-4.1317,-4.1344,-4.1308,-4.1379,-4.1558,-4.1302,-4.1301,-4.1347,-4.1746,-4.1795,-4.183,-4.1518,-4.1523,-4.1528,-4.1744,0,-4.1083,-4.124,-4.1197,-4.1355,-4.1423,-4.1339,-4.1419,-4.1439,-4.1428,-4.1484,-4.1472,-4.1537,-4.1451,-4.1466,-4.1532,-4.1522,-4.1637,-4.1506,-4.1587,-4.1591,-4.1581,-4.1867,-4.1919,-4.2122,-4.1771,-4.1776,-4.1779,0,-4.1356,-4.1396,-4.156,-4.1566,-4.1592,-4.1666,-4.171,-4.1765,-4.1786,-4.1772,-4.1803,-4.1752,-4.1844,-4.1736,-4.1861,-4.1773,-4.1804,-4.1804,-4.1811,-4.1815,-4.1694,-4.1876,-4.2186,-4.2216,-4.1822,-4.1818,-4.1815,0,-4.1566,-4.1661,-4.1771,-4.1788,-4.1797,-4.1851,-4.1857,-4.1872,-4.1906,-4.1945,-4.1966,-4.2017,-4.2043,-4.2083,-4.2048,-4.1973,-4.2178,-4.2067,-4.2168,-4.217,-4.2213,-4.2211,-4.253,-4.2238,-4.2238,-4.2237,-4.2236,0,-4.1811,-4.1914,-4.1865,-4.1933,-4.2046,-4.1996,-4.211,-4.2107,-4.2121,-4.2186,-4.2118,-4.2181,-4.2131,-4.219,-4.2163,-4.2269,-4.2283,-4.2274,-4.2265,-4.2279,-4.228,-4.2296,-4.228,-4.2245,-4.2243,-4.2242,-4.224,0,-4.2063,-4.2035,-4.2148,-4.2148,-4.2151,-4.2234,-4.2234,-4.2296,-4.2281,-4.2364,-4.2381,-4.2357,-4.2422,-4.2391,-4.2461,-4.2442,-4.2579,-4.2552,-4.2571,-4.2563,-4.2665,-4.2655,-4.3005,-4.3047,-4.273,-4.2734,-4.2736,0,-4.222,-4.2297,-4.2305,-4.2344,-4.2355,-4.2418,-4.2452,-4.2407,-4.2445,-4.2474,-4.2533,-4.2593,-4.2638,-4.2747,-4.2735,-4.2788,-4.2761,-4.288,-4.2768,-4.2779,-4.2759,-4.2754,-4.2761,-4.2901,-4.2905,-4.2908,-4.291,0,-4.2501,-4.2483,-4.2534,-4.2581,-4.2623,-4.2658,-4.2687,-4.2723,-4.2679,-4.2725,-4.2791,-4.2826,-4.2896,-4.2956,-4.3002,-4.3008,-4.2952,-4.2946,-4.2972,-4.2985,-4.2992,-4.2987,-4.263,-4.2938,-4.2935,-4.2933,-4.2931,-4.293,-4.2708,-4.2772,-4.2787,-4.2847,-4.2864,-4.2893,-4.2951,-4.2942,-4.2996,-4.3049,-4.3019,-4.3096,-4.3115,-4.317,-4.3185,-4.3244,-4.3197,-4.3235,-4.3244,-4.3253,-4.3265,-4.2985,-4.3253,-4.3252,-4.3251,-4.325,-4.325,0,-4.2983,-4.2988,-4.3044,-4.3086,-4.3133,-4.3076,-4.3106,-4.3149,-4.3217,-4.3239,-4.3284,-4.336,-4.3417,-4.3411,-4.3463,-4.3512,-4.3488,-4.3527,-4.3522,-4.3524,-4.3306,-4.3277,-4.3546,-4.3546,-4.3546,-4.3546,-4.3546,-4.3546,-4.3131,-4.3236,-4.322,-4.3333,-4.3338,-4.3412,-4.3433,-4.3459,-4.3476,-4.3563,-4.361,-4.3606,-4.3616,-4.3669,-4.3719,-4.3716,-4.3737,-4.3786,-4.3773,-4.3569,-4.354,-4.3512,-4.3484,-4.3792,-4.3793,-4.3986,-4.3988,-4.3989]},{"header":{"parameterUnit":"m.s-1","parameterCategory":1,"la1":30.2991,"la2":30.254,"lo1":-89.0895,"lo2":-89.0444,"dy":0.0017,"dx":0.0017,"nx":28,"ny":28,"refTime":"2025-12-06T09:00:00:Z","depth":0,"parameterNumber":3,"parameterNumberName":"V-component_of_WINDS"},"data":[0,0,0,0,0,0,0,0,0,0,0,0,0,0,0,0,0,0,0,0,0,0,0,0,0,0,0,0,0,0,0,0,0,0,0,0,0,0,0,0,0,0,0,0,0,0,0,0,0,0,0,0,0,0,0,0,0,0,-0.9696,-0.9696,0,-0.9698,-0.9698,-0.9698,-0.9718,-0.9718,-0.9719,-0.9719,-0.9719,-0.9719,-0.9718,0,0,0,0,0,0,0,0,0,0,0,0,0,-0.9708,-0.9708,-0.9696,-0.9696,-0.9696,-0.9698,-0.9698,-0.9698,-0.9718,-0.9718,-0.9719,-0.972,-0.9719,-0.9719,-0.9718,0,0,0,0,0,0,0,0,0,0,0,0,0,-0.9705,-0.9708,-0.9696,-0.9707,-0.9708,-0.9698,-0.9698,-0.9698,-0.9718,-0.9718,-0.9719,-0.972,-0.972,-0.9719,-0.9718,-0.9698,0,0,-0.9716,-0.9716,0,0,0,0,0,0,0,0,-0.9706,-0.9705,-0.9705,-0.9706,-0.9707,-0.9708,-0.9702,-0.9698,-0.9717,-0.9714,-0.9719,-0.972,-0.9715,-0.9715,-0.9713,-0.9698,-0.9698,-0.9716,-0.9715,-0.9715,-0.9715,0,0,0,0,0,0,0,-0.9706,-0.9705,-0.9697,-0.9705,-0.9706,-0.971,-0.9711,-0.9701,-0.971,-0.9714,-0.9716,-0.9716,-0.9716,-0.9714,-0.9713,-0.9698,-0.9716,-0.9715,-0.9715,-0.9715,-0.9664,-0.9663,0,0,0,0,0,0,-0.9705,-0.9705,-0.9697,-0.9697,-0.9708,-0.9709,-0.971,-0.9707,-0.971,-0.9711,-0.9715,-0.9716,-0.9715,-0.9714,-0.9713,-0.9688,-0.9715,-0.9714,-0.9714,-0.9665,-0.9664,-0.9663,0,0,0,0,0,0,-0.9705,-0.9704,-0.9697,-0.9701,-0.9701,-0.9708,-0.9705,-0.9707,-0.9705,-0.9711,-0.9712,-0.9712,-0.9715,-0.9714,-0.9701,-0.9689,-0.9714,-0.9713,-0.9666,-0.9665,-0.9663,-0.9639,0,0,0,0,0,0,-0.9705,-0.9704,-0.9697,-0.9701,-0.97,-0.9686,-0.9704,-0.9706,-0.9704,-0.9706,-0.9708,-0.9709,-0.9716,-0.9702,-0.9701,-0.9688,-0.9713,-0.9667,-0.9666,-0.9664,-0.9641,-0.9637,-0.9634,0,0,0,0,0,-0.9706,-0.9691,-0.9697,-0.9696,-0.9693,-0.9685,-0.9684,-0.9693,-0.9703,-0.9696,-0.9699,-0.9709,-0.969,-0.9701,-0.9699,-0.9686,-0.9668,-0.9666,-0.9664,-0.9643,-0.9638,-0.9634,0,0,0,0,0,0,-0.9685,-0.9691,-0.9698,-0.9685,-0.9684,-0.9688,-0.968,-0.9688,-0.9684,-0.9686,-0.9696,-0.9697,-0.9681,-0.9683,-0.9694,-0.9666,-0.9681,-0.9678,-0.9665,-0.9661,-0.9657,-0.9657,-0.9712,0,0,0,0,0,-0.9679,-0.9673,-0.9679,-0.9666,-0.9665,-0.9672,-0.9669,-0.9676,-0.9675,-0.9675,-0.9678,-0.9676,-0.967,-0.9666,-0.966,-0.9642,-0.9641,-0.9632,-0.9628,-0.9625,-0.9622,-0.961,-0.9605,-0.9656,-0.9656,-0.9656,0,0,-0.9667,-0.9669,-0.9665,-0.9662,-0.9662,-0.9654,-0.9672,-0.9664,-0.9658,-0.9674,-0.9661,-0.9663,-0.9662,-0.9645,-0.9638,-0.9646,-0.9608,-0.9622,-0.962,-0.9619,-0.9607,-0.9603,-0.9598,-0.9655,-0.9655,-0.9655,0,0,-0.9639,-0.9642,-0.963,-0.963,-0.963,-0.9634,-0.9631,-0.9634,-0.9635,-0.9623,-0.9634,-0.9627,-0.9616,-0.9614,-0.9612,-0.9581,-0.959,-0.9579,-0.956,-0.9548,-0.9544,-0.954,-0.9527,-0.9523,-0.9577,-0.9577,-0.9577,0,-0.9623,-0.9613,-0.9623,-0.9613,-0.961,-0.9624,-0.9612,-0.9611,-0.9609,-0.9606,-0.9615,-0.96,-0.9601,-0.9583,-0.9575,-0.9574,-0.9569,-0.9579,-0.9544,-0.954,-0.9537,-0.9525,-0.952,-0.9576,-0.9576,-0.9576,-0.9576,0,-0.9592,-0.9585,-0.9575,-0.9573,-0.9569,-0.9558,-0.9565,-0.956,-0.9566,-0.9569,-0.9554,-0.9555,-0.9549,-0.9546,-0.9552,-0.9528,-0.9532,-0.9542,-0.9557,-0.9531,-0.9519,-0.9515,-0.9574,-0.9574,-0.9574,-0.9575,0,0,-0.9553,-0.9555,-0.9551,-0.9549,-0.9549,-0.9543,-0.9532,-0.9526,-0.952,-0.9518,-0.9507,-0.9497,-0.9506,-0.9503,-0.9509,-0.9498,-0.9471,-0.9509,-0.9509,-0.9501,-0.9442,-0.9433,-0.9428,-0.9477,-0.9476,-0.9476,-0.9441,0,-0.9525,-0.9507,-0.9514,-0.9494,-0.9485,-0.9498,-0.9487,-0.9485,-0.9487,-0.948,-0.9482,-0.9474,-0.9487,-0.9485,-0.9475,-0.9477,-0.9459,-0.9479,-0.9466,-0.9465,-0.9464,-0.9422,-0.9414,-0.9381,-0.9437,-0.9436,-0.9436,0,-0.9491,-0.9486,-0.9465,-0.9465,-0.9462,-0.9452,-0.9446,-0.944,-0.9437,-0.9439,-0.9435,-0.9442,-0.9429,-0.9445,-0.9426,-0.9439,-0.9434,-0.9434,-0.9432,-0.9431,-0.9448,-0.9417,-0.9371,-0.9366,-0.9429,-0.943,-0.943,0,-0.9462,-0.9451,-0.9436,-0.9434,-0.9434,-0.9427,-0.9426,-0.9424,-0.9419,-0.9414,-0.941,-0.9403,-0.9399,-0.9393,-0.9397,-0.9409,-0.9377,-0.9393,-0.9376,-0.9376,-0.9369,-0.9369,-0.9319,-0.9367,-0.9367,-0.9368,-0.9368,0,-0.9429,-0.9415,-0.9423,-0.9414,-0.9398,-0.9406,-0.9389,-0.939,-0.9388,-0.9378,-0.9388,-0.9378,-0.9386,-0.9376,-0.938,-0.9362,-0.936,-0.936,-0.9361,-0.9359,-0.9358,-0.9355,-0.9356,-0.9366,-0.9367,-0.9367,-0.9367,0,-0.9394,-0.9399,-0.9383,-0.9384,-0.9383,-0.9371,-0.9371,-0.9362,-0.9364,-0.9351,-0.9348,-0.9351,-0.934,-0.9344,-0.9333,-0.9335,-0.9312,-0.9317,-0.9313,-0.9314,-0.9296,-0.9296,-0.9241,-0.9233,-0.9288,-0.9287,-0.9287,0,-0.9372,-0.9362,-0.9361,-0.9355,-0.9353,-0.9344,-0.9339,-0.9345,-0.9339,-0.9334,-0.9325,-0.9314,-0.9307,-0.9288,-0.9289,-0.9279,-0.9283,-0.9264,-0.9281,-0.9278,-0.928,-0.928,-0.9278,-0.926,-0.9259,-0.9259,-0.9258,0,-0.9333,-0.9335,-0.9327,-0.932,-0.9313,-0.9307,-0.9303,-0.9297,-0.9303,-0.9295,-0.9284,-0.9278,-0.9265,-0.9254,-0.9245,-0.9244,-0.9251,-0.9253,-0.9248,-0.9244,-0.9242,-0.9241,-0.9302,-0.9254,-0.9254,-0.9255,-0.9255,-0.9255,-0.9302,-0.9293,-0.929,-0.928,-0.9277,-0.9272,-0.9262,-0.9263,-0.9254,-0.9244,-0.9248,-0.9234,-0.923,-0.9218,-0.9215,-0.9204,-0.9211,-0.9204,-0.9202,-0.92,-0.9197,-0.9245,-0.9202,-0.9202,-0.9202,-0.9203,-0.9203,0,-0.9261,-0.926,-0.9251,-0.9243,-0.9235,-0.9243,-0.9238,-0.923,-0.9218,-0.9213,-0.9205,-0.9191,-0.9179,-0.9179,-0.9168,-0.9158,-0.9161,-0.9155,-0.9155,-0.9154,-0.9192,-0.9197,-0.9153,-0.9153,-0.9153,-0.9153,-0.9153,-0.9153,-0.9239,-0.9222,-0.9224,-0.9205,-0.9203,-0.919,-0.9185,-0.918,-0.9176,-0.9159,-0.915,-0.915,-0.9146,-0.9134,-0.9124,-0.9124,-0.9118,-0.911,-0.9111,-0.9147,-0.9152,-0.9156,-0.916,-0.911,-0.9109,-0.9074,-0.9073,-0.9073]}]]